STARLINK-11500 [DTC] (62472 NORAD) Tracking and Keplerian Element Data

This shows tracking and keplerian element data for the satellite.

Feedback or suggestion? Click here.




ElementValue
Catalog62472
NameSTARLINK-11500 [DTC]
Epoch Orbit619
Epoch Day35.24037347
Epoch Year2025
RAAN105.7591
Inclination43.0034
Eccentricity8.01E-05
Argument of Perigee246.8054
Mean Anonmoly113.2732
Mean Motion15.77858784
Decay Rate9.43E-06
L11 62472U 24254L 25035.24037347 .00000943 00000+0 82786-5 0 9994
L22 62472 43.0034 105.7591 0000801 246.8054 113.2732 15.77858784 6198



Live tracking and technical data element details for STARLINK-11500 [DTC] (NORAD 62472). STARLINK-11500 [DTC] can be tracked NOW for your location showing map with azimuth and elevation plus other details from your city location.







IsCatalogInMostPopularTable: catalog: 62472, numindb: 26
Update: records affected: 1



GetName: 62472 STARLINK-11500 [DTC]

Hit Count: updated at: Sun, 18 May 2025 23:39:36 GMT